User: anonymous   Login
Location: Raleigh
(35.7720°N, 78.6390°W)
Time: 09:26:11
(UTC-04:00)
Language:

JAS-2 - Orbit

View from above orbital plane
View from above orbital plane
View from above satellite
View from above satellite

Ground track
Ground track

The orbit data is extracted from the following two-line orbital elements,

1 24278U 96046B   15144.85805594  .00000026  00000-0  59633-4 0  9995
2 24278 098.5384 116.8097 0351178 131.1829 288.2419 13.53051790926874
Epoch (UTC): 24 May 2015 20:35:36
Eccentricity: 0.0351178
inclination: 98.5384°
perigee height: 800 km
apogee height: 1322 km
right ascension of ascending node: 116.8097°
argument of perigee: 131.1829°
revolutions per day: 13.53051790
mean anomaly at epoch: 288.2419°
orbit number at epoch: 92687

The dashed part of the orbit path shows where the satellite is in the earth's shadow,  

DLR